Погода Винницы

Погода Винницы : погода сейчас, прогноз погоды и архив. Всё, что Вы хотите узнать о погоде Винницы!

Поиск расширенной информации на нашем сайте:

Другие новости

Новости СМИ2

Главная страница сайта

Новости сайта

03.07.2017

Напоминаем, что на нашем специализированном сайте Метеоцентр.Азия вы можете получить высокодетализированные автоматические прогнозы погоды по пунктам России, СНГ и мира в авиационном формате (включающие направление и скорость ветра, видимость, явления погоды, количество и форму облачности, нижнюю и верхнюю границу облачности).


Погода Винницы - сегодня

Время (UTC), дата Ветер
(°,м/с) 
Видим.   Явления Облачность Т
(°С)
Тd
(°С)
f(%) Тe
(°С)
Pmin
(гПа)
dP
(гПа)
Po
(мм)
O2
(г/м3)
Тmin Tmax R s Состояние
почвы
09 16.09.18 190 (Ю) 20000 м    9/8 630 м кучево-дожд., средняя 
[Cb cap|Ac und]
+14.4 +11 80 +18  1008.3  -0.7  746  284           
21 16.09.18 250 (З) 50000 м    ясно 
+6.4 +6.3 99 +6  1011.7  0.3  749  294           
00 17.09.18 250 (З) 50000 м    ясно 
+5.2 +5.2 100 +4  1011.8  749  295           
03 18.09.18 280 (З) 50000 м  {ливн. осадки}  9/9 420 м кучево-дожд. 
[Cb cap]
+11 +9.9 93 +12  1002.3  1.5  742  285  +9.4       
09 18.09.18 300 (СЗ) 20000 м    9/9 570 м кучево-дожд. 
[Cb cap]
+10.4 +6.6 77 +11  1008.4  3.3  746  289           
21 18.09.18 250 (З) 50000 м    8/0 средняя 
[Ac und]
+9.4 +8.3 93 +9  1011.4  -0.1  748  290           
03 19.09.18 180 (Ю) 50000 м  в посл. час ливневой дождь  9/9 570 м кучево-дожд. 
[Cb cap]
+9.6 +9.3 98 +11  1009.3  -1  747  289  +8.6    0.8     
21 19.09.18 250 (З) 50000 м    8/0 средняя 
[Ac und]
+13.2 +12.9 98 +19  1005.6  744  283           
00 20.09.18 250 (З) 50000 м    8/0 средняя 
[Ac und]
+13.2 +12.6 96 +19  1006.1  0.5  745  284           
09 20.09.18 250 (З) 20000 м    8/5 600 м верхняя 
[Cu hum|Ci fib]
+17.6 +12.7 73 +23  1009.3  1.2  747  280           
21 20.09.18 240 (ЮЗ) 50000 м    3/0 верхняя 
[Ci fib]
+15.1 +13.6 91 +21  1009.5  0.2  747  283           
00 21.09.18 230 (ЮЗ) 50000 м    3/0 средняя, верхняя 
[Ac trans|Ci fib]
+15.4 +13.4 88 +22  1010.2  0.7  748  283           
09 21.09.18 230 (ЮЗ) 20000 м    9/4 600 м кучево-дожд., средняя 
[Cb cap|Ac und]
+18.6 +12.8 69 +24  1012.3  1.1  749  280           
12 21.09.18 240 (ЮЗ) 20000 м    8/4 600 м кучево-дожд., средняя 
[Cb cap|Ac und]
+19.3 +11.6 61 +23  1012.7  0.4  750  280           
15 21.09.18 200 (Ю) 20000 м    9/5 600 м кучево-дожд., средняя 
[Cb cap|Ac und]
+17.5 +13.4 77 +24  1013.1  0.3  750  281           
21 21.09.18 110 (В) 50000 м    8/0 средняя, верхняя 
[Ac trans|Ci fib]
+12.3 +12.2 99 +18  1011.9  -0.9  749  286           
00 22.09.18 190 (Ю) 50000 м    5/0 верхняя 
[Ci fib]
+12.8 +12.2 96 +17  1010.5  -1.4  748  285           
09 22.09.18 190 (Ю) 7-14{14}  20000 м    ясно 
+22.7 +13.3 55 +29  1002.7  -3  743  274           
21 22.09.18 210 (ЮЗ) 50000 м  {ливн. осадки}  9/5 600 м кучево-дожд., средняя 
[Cb cap|Ac und]
+10.2 +9.2 94 +10  1004.3  -0.4  743  287           
21 23.09.18 220 (ЮЗ) 50000 м    8/5 600 м кучево-дожд., средняя 
[Cb cap|Ac und]
+6.7 +6 95 +7  1001  0.1  741  290           
00 24.09.18 220 (ЮЗ) 50000 м    8/5 600 м кучево-дожд., средняя 
[Cb cap|Ac und]
+8.1 +7 93 +8  1001.4  0.5  741  289           
21 24.09.18 тихо ()   50000 м    10/5 600 м кучево-дожд., средняя 
[Cb cap|Ac und]
+6.4 +6.3 99 +6  1003  -0.4  742  291           
00 25.09.18 010 (С) 50000 м    9/5 600 м кучево-дожд., средняя 
[Cb cap|Ac und]
+5.7 +5.3 97 +5  1002.3  -0.7  742  292           
09 25.09.18 350 (С) 20000 м    8/5 600 м кучево-дожд., средняя 
[Cb cap|Ac und]
+7.9 +4 76 +7  1004.9  1.6  744  291           
12 25.09.18 330 (СЗ) 20000 м    9/5 600 м кучево-дожд., средняя 
[Cb cap|Ac und]
+6.3 +2.1 74 +5  1007.7  2.7  746  293           
Время (UTC), дата Ветер
(°,м/с) 
Видим.   Явления Облачность Т
(°С)
Тd
(°С)
f(%) Тe
(°С)
Pmin
(гПа)
dP
(гПа)
Po
(мм)
O2
(г/м3)
Тmin Tmax R s Состояние
почвы

Для получения пояснительной информации подведите курсор к названию столбца.

ПОГОДА Винницы - архив

Всё, что Вы хотите узнать о погоде Винницы - удобно и подробно!

Выберите нужную дату (начиная с 1 января 2015* года) и нажмите кнопку "Найти".
Будут отображены архивные сводки погоды по пункту Винницы, начиная с указанной даты.


Отображать данные в формате CSV (для использования в таблицах Excel)


Внимание! Наш архив погоды предназначен исключительно для личного некоммерческого использования в познавательных целях. Если Вам необходимы официальные справки о состоянии погоды (для производственных, юридических, коммерческих и т.п. целей), обращайтесь в органы Росгидромета.

*Примечание: данная дата относится к архиву по метеостанциям СССР (Россия, СНГ, Балтия).
Архив по метеостанциям Зарубежной Европы и Азии (кроме Китая) хранится 10 дней, по другим регионам земного шара (Китай, Африка, Америка, Австралия, Океания) - 1 день.

Винницы - район местоположения метеостанции


Название, широта, долгота, высота метеостанции:
Винницы 60.6°ш. 34.8°д. 111 м над ур. моря [Российская Федерация]

Дополнительная информация

В oтличие oт бoльшинства пoгoдных сайтoв мы публикуем пoдрoбную метеoинфoрмацию в детальнoм прoфессиoнальнoм фoрмате.

Характеристики температуры и влажнoсти вoздуха измеряются на высoте 2 м в тени вдали oт зданий и деревьев.
Скoрoсть ветра измеряется на высoте 10 м (на урoвне рoста челoвека скoрoсть ветра ниже в 1.5-2 раза). Если метеoстанция нахoдится в гoрoде или в лесу, тo скoрoсть ветра занижена на 2-4 м/с пo сравнению с oткрытым местoм. Скoрoсть ветра над акватoриями крупных рек и oзёр, а также на вершинах хoлмoв на 2-5 м/с выше, чем в oбычных услoвиях.
Атмoсфернoе давление в разных тoчках местнoсти мoжет значительнo oтличаться oт давления на метеoстанции, в зависимoсти oт услoвий рельефа (при пoдъёме на 10 м давление пoнижается примернo на 1 мм рт.ст.).